FW5295 Weather Reports


Display with metric or nautical units.
time (UTC)temp
F
wind
direction
speed
MPH
gust
MPH
rain 1hr
in
rain 24hr
in
rain mn
in
humidity
%
barometer
mb
20260831214005 81 325 2.0 3.0 0.02 0.17 0.11 87 1012.5
20260831213505 82 221 0.0 2.0 0.02 0.17 0.11 85 1012.5
20260831213005 83 195 2.0 3.0 0.02 0.17 0.11 83 1012.5
20260831212503 83 259 2.0 3.0 0.00 0.15 0.09 81 1012.5
20260831212004 83 159 1.0 3.0 0.00 0.15 0.09 79 1012.5
20260831211502 83 253 1.0 3.0 0.00 0.15 0.09 80 1012.2
20260831211002 83 249 2.0 5.0 0.00 0.15 0.09 81 1012.5
20260831210503 83 273 2.0 5.0 0.01 0.15 0.09 82 1012.5
20260831210002 83 39 1.0 4.0 0.02 0.15 0.09 83 1012.2
20260831205944 83 249 1.0 4.0 0.02 0.15 0.09 82 1011.9
20260831205001 83 196 1.0 4.0 0.02 0.15 0.09 82 1011.9
20260831204459 83 243 1.0 4.0 0.02 0.15 0.09 81 1011.9
20260831203959 82 251 2.0 4.0 0.02 0.15 0.09 84 1012.2
20260831203459 82 180 2.0 4.0 0.02 0.15 0.09 83 1012.2
20260831202958 82 155 0.0 3.0 0.02 0.15 0.09 84 1012.5
20260831202723 81 259 3.0 3.0 0.02 0.15 0.09 86 1012.5
20260831201959 81 237 2.0 2.0 0.02 0.15 0.09 88 1012.5
20260831201459 81 264 0.0 3.0 0.02 0.15 0.09 86 1012.5
20260831200956 81 256 1.0 4.0 0.02 0.15 0.09 85 1012.9
20260831200457 82 288 1.0 4.0 0.01 0.14 0.08 81 1013.3
20260831195955 82 259 0.0 5.0 0.00 0.13 0.07 79 1013.3
20260831195456 82 244 1.0 6.0 0.00 0.13 0.07 78 1013.3
20260831194954 83 253 2.0 6.0 0.00 0.13 0.07 77 1013.3
20260831194454 83 246 3.0 4.0 0.00 0.13 0.07 77 1012.9
20260831194218 82 227 1.0 4.0 0.00 0.13 0.07 78 1012.9
20260831193454 82 211 4.0 4.0 0.00 0.13 0.07 78 1012.9
20260831193211 81 250 2.0 4.0 0.00 0.13 0.07 79 1012.5
20260831192451 81 210 2.0 3.0 0.00 0.13 0.07 82 1012.9
20260831191951 81 179 2.0 2.0 0.01 0.13 0.07 81 1012.5
20260831191450 81 304 1.0 2.0 0.01 0.13 0.07 80 1012.9
20260831190951 81 256 0.0 2.0 0.01 0.13 0.07 79 1012.9
20260831190449 82 219 1.0 5.0 0.01 0.13 0.07 77 1012.9
20260831185950 82 249 2.0 5.0 0.01 0.13 0.07 75 1012.9
20260831185448 82 232 3.0 5.0 0.01 0.13 0.07 75 1012.9
20260831184947 82 246 3.0 5.0 0.01 0.13 0.07 75 1012.9
20260831184448 80 223 2.0 4.0 0.01 0.13 0.07 78 1012.9
20260831183948 80 231 2.0 2.0 0.01 0.16 0.07 78 1012.5
20260831183448 80 291 1.0 3.0 0.01 0.16 0.07 77 1013.3
20260831182945 80 237 2.0 3.0 0.01 0.16 0.07 77 1013.3
20260831182445 80 260 0.0 4.0 0.01 0.16 0.07 76 1013.3
20260831181944 81 221 2.0 7.0 0.00 0.15 0.06 74 1012.9
20260831181446 82 245 3.0 7.0 0.00 0.15 0.06 72 1013.3
20260831180944 82 196 4.0 7.0 0.00 0.15 0.06 73 1013.3
20260831180444 82 187 2.0 7.0 0.00 0.15 0.06 72 1013.3
20260831175942 82 232 3.0 9.0 0.00 0.15 0.06 71 1013.3
20260831175442 82 289 2.0 9.0 0.00 0.15 0.06 70 1013.3
20260831174941 83 229 3.0 6.0 0.00 0.15 0.06 73 1012.9
20260831174440 82 227 3.0 10.0 0.00 0.15 0.06 72 1012.9
20260831173942 82 180 6.0 10.0 0.00 0.15 0.06 72 1013.3
20260831173439 81 193 3.0 10.0 0.00 0.15 0.06 72 1013.3
20260831172939 81 180 6.0 7.0 0.00 0.15 0.06 71 1013.3
20260831172438 81 181 3.0 6.0 0.00 0.15 0.06 73 1013.3
20260831171939 81 230 4.0 6.0 0.00 0.15 0.06 71 1013.7
20260831171440 81 185 5.0 9.0 0.00 0.15 0.06 72 1013.7
20260831170937 81 224 4.0 9.0 0.00 0.15 0.06 72 1013.7
20260831170439 81 148 7.0 9.0 0.00 0.15 0.06 71 1013.7
20260831165937 81 217 2.0 7.0 0.00 0.15 0.06 71 1013.7
20260831165700 80 259 3.0 7.0 0.00 0.15 0.06 73 1013.7
20260831164937 80 198 4.0 7.0 0.00 0.15 0.06 73 1014.0
20260831164436 80 239 6.0 7.0 0.00 0.15 0.06 74 1014.0
20260831163936 80 203 4.0 7.0 0.00 0.15 0.06 70 1014.0
20260831163915 80 188 3.0 6.0 0.00 0.15 0.06 72 1014.0
20260831162936 80 186 4.0 6.0 0.00 0.15 0.06 72 1013.7
20260831162434 80 221 2.0 8.0 0.00 0.15 0.06 72 1013.7
20260831161932 79 190 3.0 8.0 0.00 0.15 0.06 72 1013.7
20260831161432 78 203 3.0 8.0 0.00 0.15 0.06 73 1013.7
20260831160932 78 173 3.0 8.0 0.00 0.15 0.06 74 1013.7
20260831160433 78 210 2.0 10.0 0.00 0.15 0.06 76 1014.0
20260831155932 78 194 2.0 13.0 0.00 0.15 0.06 76 1014.0
20260831155430 77 193 4.0 13.0 0.00 0.15 0.06 77 1014.0
20260831154932 77 197 3.0 10.0 0.00 0.15 0.06 78 1013.7
20260831154429 77 248 3.0 7.0 0.00 0.15 0.06 80 1013.7
20260831153931 76 197 2.0 10.0 0.00 0.15 0.06 80 1014.0
20260831153919 76 168 4.0 10.0 0.00 0.15 0.06 82 1014.0
20260831153154 75 200 3.0 10.0 0.00 0.15 0.06 82 1014.0
20260831152427 74 169 4.0 9.0 0.00 0.15 0.06 83 1014.3
20260831151927 74 219 2.0 8.0 0.00 0.15 0.06 84 1014.0
20260831151426 74 168 6.0 9.0 0.00 0.15 0.06 85 1014.0
20260831151410 73 305 1.0 9.0 0.00 0.15 0.06 86 1014.0
20260831150425 73 198 6.0 9.0 0.00 0.15 0.06 87 1014.3
20260831145925 73 166 5.0 9.0 0.00 0.15 0.06 88 1014.0
20260831145423 72 209 2.0 10.0 0.00 0.15 0.06 89 1014.0
20260831144923 71 191 6.0 10.0 0.00 0.15 0.06 90 1014.0
20260831144422 71 162 4.0 9.0 0.00 0.15 0.06 90 1014.3
20260831143923 71 164 4.0 9.0 0.00 0.15 0.06 89 1014.0
20260831143423 71 158 9.0 9.0 0.00 0.15 0.06 88 1014.0
20260831142923 71 173 3.0 8.0 0.00 0.15 0.06 88 1014.3
20260831142435 71 165 5.0 8.0 0.00 0.15 0.06 89 1014.0
20260831141921 71 183 4.0 6.0 0.00 0.15 0.06 90 1014.0
20260831141420 71 177 3.0 6.0 0.00 0.15 0.06 90 1014.0
20260831140921 71 188 2.0 6.0 0.00 0.15 0.06 90 1014.0
20260831140419 71 178 2.0 7.0 0.00 0.15 0.06 90 1013.7
20260831140144 70 138 4.0 8.0 0.03 0.15 0.06 90 1014.0
20260831135618 70 153 3.0 7.0 0.03 0.15 0.06 91 1014.3
20260831135511 70 150 5.0 8.0 0.03 0.15 0.06 91 1014.0
20260831134419 70 184 4.0 7.0 0.03 0.15 0.06 91 1014.0
20260831133919 70 180 5.0 7.0 0.03 0.15 0.06 91 1014.0
20260831133417 69 181 2.0 7.0 0.03 0.15 0.06 92 1014.0
20260831133137 69 165 3.0 7.0 0.03 0.15 0.06 92 1013.7
20260831132640 69 169 4.0 7.0 0.03 0.15 0.06 93 1014.0
20260831131915 69 172 5.0 6.0 0.03 0.15 0.06 93 1014.0
20260831131644 69 155 3.0 7.0 0.03 0.15 0.06 93 1014.0
20260831131134 69 180 4.0 7.0 0.03 0.15 0.06 92 1014.0
20260831130414 69 173 5.0 8.0 0.04 0.15 0.06 91 1014.0
20260831125913 69 159 3.0 8.0 0.02 0.12 0.03 91 1014.0
20260831125413 69 169 3.0 4.0 0.02 0.12 0.03 91 1014.0
20260831125138 69 173 2.0 5.0 0.02 0.12 0.03 91 1014.0
20260831124411 69 153 2.0 6.0 0.02 0.12 0.03 91 1013.7
20260831124131 69 172 3.0 6.0 0.02 0.13 0.03 91 1013.7
20260831123409 69 161 4.0 5.0 0.02 0.13 0.03 91 1013.7
20260831122909 69 150 2.0 4.0 0.02 0.16 0.03 91 1014.0
20260831122407 69 169 4.0 5.0 0.02 0.20 0.03 90 1014.0
20260831121909 69 171 2.0 6.0 0.02 0.20 0.03 89 1013.7
20260831121408 70 169 5.0 6.0 0.02 0.20 0.03 88 1013.7
20260831120908 70 162 3.0 5.0 0.02 0.21 0.03 86 1014.0
20260831120407 71 200 1.0 4.0 0.01 0.21 0.02 85 1013.7
20260831115920 71 242 2.0 5.0 0.00 0.20 0.01 84 1013.7
20260831115405 71 203 2.0 5.0 0.00 0.20 0.01 83 1013.7
20260831114906 72 233 2.0 6.0 0.01 0.20 0.01 81 1013.7
20260831114406 72 183 3.0 6.0 0.01 0.21 0.01 81 1013.7
20260831113904 72 261 2.0 4.0 0.01 0.22 0.01 81 1013.7
20260831113403 72 210 1.0 3.0 0.01 0.22 0.01 80 1013.3
20260831112903 72 240 0.0 3.0 0.01 0.22 0.01 80 1013.7
20260831112403 72 258 2.0 5.0 0.01 0.23 0.01 79 1013.7
20260831111902 72 217 1.0 5.0 0.01 0.23 0.01 80 1013.3
20260831111404 72 212 4.0 4.0 0.01 0.24 0.01 80 1013.3
20260831111126 72 244 2.0 4.0 0.01 0.24 0.01 81 1012.9
20260831110402 71 216 3.0 5.0 0.01 0.24 0.01 82 1012.9
20260831105859 71 180 1.0 5.0 0.01 0.24 0.01 83 1012.9
20260831105358 71 207 2.0 4.0 0.01 0.24 0.01 83 1012.9
20260831104900 71 213 2.0 4.0 0.00 0.23 0.00 83 1012.9
20260831104359 72 230 4.0 4.0 0.00 0.23 0.00 82 1013.3
20260831103858 73 145 2.0 4.0 0.00 0.23 0.00 80 1012.9
20260831103357 73 229 4.0 4.0 0.00 0.23 0.00 78 1012.9
20260831103346 73 216 2.0 4.0 0.00 0.23 0.00 79 1013.3
20260831102356 73 242 3.0 4.0 0.00 0.23 0.00 79 1013.3
20260831101856 73 207 2.0 4.0 0.00 0.23 0.00 79 1012.9
20260831101354 73 179 2.0 4.0 0.00 0.23 0.00 79 1012.9
20260831101117 73 236 2.0 4.0 0.00 0.23 0.00 79 1013.3
20260831100354 73 202 2.0 3.0 0.00 0.23 0.00 79 1012.9
20260831100339 73 205 2.0 3.0 0.00 0.23 0.00 79 1013.3
20260831095354 73 179 2.0 4.0 0.00 0.23 0.00 79 1013.3
20260831094852 73 218 3.0 4.0 0.00 0.23 0.00 79 1012.9
20260831094616 73 187 2.0 4.0 0.00 0.23 0.00 79 1012.9
20260831093851 73 207 1.0 5.0 0.00 0.23 0.00 79 1012.9
20260831093350 73 225 2.0 5.0 0.00 0.23 0.00 79 1013.3
20260831092853 73 189 3.0 4.0 0.00 0.23 0.00 80 1013.3
20260831092350 73 248 2.0 4.0 0.00 0.23 0.00 80 1012.9
20260831091849 73 189 0.0 4.0 0.00 0.23 0.00 80 1013.3
20260831091349 73 208 2.0 4.0 0.00 0.23 0.00 80 1013.3
20260831090849 73 189 2.0 4.0 0.00 0.23 0.00 80 1013.3
20260831090348 73 236 4.0 4.0 0.00 0.23 0.00 80 1012.9
20260831085847 73 216 3.0 4.0 0.00 0.23 0.00 80 1012.9
20260831085348 73 227 3.0 5.0 0.00 0.23 0.00 79 1012.9
20260831084847 73 196 2.0 5.0 0.00 0.23 0.00 79 1012.9
20260831084608 73 194 2.0 4.0 0.00 0.23 0.00 79 1012.9
20260831083845 73 214 2.0 4.0 0.00 0.23 0.00 79 1013.3
20260831083344 73 190 2.0 4.0 0.00 0.23 0.00 79 1012.9
20260831083113 73 160 2.0 4.0 0.00 0.23 0.00 79 1013.3
20260831082616 73 182 2.0 6.0 0.00 0.23 0.00 80 1013.3
20260831081844 73 214 2.0 6.0 0.00 0.23 0.00 80 1013.3
20260831081344 73 212 2.0 4.0 0.00 0.23 0.00 80 1013.3
20260831080842 73 204 1.0 4.0 0.00 0.23 0.00 80 1013.3
20260831080341 73 220 2.0 4.0 0.00 0.23 0.00 80 1013.3
20260831075842 73 209 2.0 4.0 0.00 0.23 0.00 80 1013.3
20260831075340 73 225 2.0 4.0 0.00 0.23 0.00 80 1013.3
20260831074841 73 222 3.0 4.0 0.00 0.23 0.00 80 1013.3
20260831074609 73 239 3.0 4.0 0.00 0.23 0.00 81 1012.9
20260831073839 73 224 3.0 4.0 0.00 0.23 0.00 81 1013.3
20260831073604 73 227 2.0 4.0 0.00 0.23 0.00 81 1013.3
20260831072837 73 212 2.0 4.0 0.00 0.23 0.00 81 1013.7
20260831072604 73 232 3.0 4.0 0.00 0.23 0.00 81 1013.7
20260831072105 74 215 3.0 4.0 0.00 0.23 0.00 81 1014.0
20260831071338 74 241 4.0 5.0 0.00 0.23 0.00 80 1013.7
20260831070836 74 246 5.0 5.0 0.00 0.23 0.00 79 1013.7
20260831070336 74 227 2.0 5.0 0.00 0.23 0.00 78 1013.7
20260831065835 74 226 3.0 5.0 0.00 0.23 0.00 78 1013.7
20260831065335 75 253 2.0 5.0 0.00 0.23 0.00 77 1013.7
20260831065102 75 226 3.0 4.0 0.00 0.23 0.00 77 1013.7
20260831064334 75 224 2.0 4.0 0.00 0.23 0.00 77 1013.7
20260831064050 75 226 2.0 5.0 0.00 0.23 0.00 77 1013.7
20260831063333 75 232 4.0 5.0 0.00 0.23 0.00 77 1013.7
20260831062833 75 223 2.0 5.0 0.00 0.23 0.00 77 1013.7
20260831062553 75 217 2.0 6.0 0.00 0.23 0.00 76 1013.7
20260831061832 75 201 2.0 6.0 0.00 0.23 0.00 76 1013.7
20260831061330 75 260 3.0 5.0 0.00 0.23 0.00 77 1013.3
20260831060829 75 229 3.0 5.0 0.00 0.23 0.00 78 1013.7
20260831060331 75 231 4.0 5.0 0.00 0.23 0.00 78 1013.7
20260831055831 75 234 3.0 5.0 0.00 0.23 0.00 79 1013.3
20260831055328 75 225 2.0 5.0 0.00 0.23 0.00 80 1013.7
20260831054827 75 70 0.0 4.0 0.00 0.23 0.00 80 1013.7
20260831054327 75 212 2.0 4.0 0.00 0.23 0.00 80 1013.7
20260831053828 75 224 2.0 4.0 0.00 0.23 0.00 81 1013.7
20260831053553 75 205 2.0 4.0 0.00 0.23 0.00 81 1013.3
20260831052827 75 228 4.0 4.0 0.00 0.23 0.00 82 1013.7
20260831052326 75 238 2.0 4.0 0.00 0.23 0.00 82 1013.3
20260831052050 75 223 4.0 5.0 0.00 0.23 0.00 82 1013.7
20260831051549 75 230 2.0 5.0 0.00 0.23 0.00 82 1013.7
20260831051050 75 242 2.0 6.0 0.00 0.23 0.00 82 1013.3
20260831050323 75 228 2.0 6.0 0.00 0.23 0.00 83 1013.3
20260831050309 75 236 4.0 6.0 0.00 0.23 0.23 84 1013.3
20260831045323 74 237 4.0 6.0 0.00 0.23 0.23 86 1013.3
20260831044823 74 214 2.0 5.0 0.00 0.23 0.23 87 1013.7
20260831044322 74 221 4.0 5.0 0.00 0.23 0.23 88 1013.7
20260831043820 74 225 4.0 5.0 0.00 0.23 0.23 90 1013.7
20260831043321 73 234 3.0 6.0 0.00 0.23 0.23 91 1013.7
20260831042819 73 220 2.0 6.0 0.00 0.23 0.23 93 1013.7
20260831042319 73 231 3.0 5.0 0.00 0.23 0.23 94 1013.7
20260831042044 72 187 2.0 5.0 0.00 0.23 0.23 96 1013.7
20260831041318 72 220 4.0 5.0 0.00 0.23 0.23 96 1013.7
20260831040817 72 212 2.0 5.0 0.00 0.23 0.23 97 1014.0
20260831040318 72 235 2.0 4.0 0.00 0.23 0.23 97 1014.0
20260831040038 72 226 3.0 4.0 0.01 0.23 0.23 97 1014.3
20260831035318 72 221 2.0 3.0 0.01 0.23 0.23 98 1014.3
20260831034816 71 234 1.0 3.0 0.01 0.23 0.23 98 1014.3
20260831034316 71 223 1.0 2.0 0.01 0.23 0.23 98 1014.3
20260831033815 71 221 1.0 2.0 0.01 0.23 0.23 98 1014.3
20260831033315 71 226 0.0 2.0 0.01 0.23 0.23 98 1014.3
20260831033036 71 189 1.0 2.0 0.01 0.23 0.23 98 1014.3
20260831032314 71 220 2.0 3.0 0.01 0.23 0.23 98 1014.3
20260831031813 72 180 2.0 3.0 0.01 0.23 0.23 98 1014.7
20260831031312 72 148 2.0 2.0 0.01 0.23 0.23 98 1014.7
20260831030813 71 67 0.0 2.0 0.01 0.23 0.23 97 1015.0
20260831030536 72 63 2.0 2.0 0.01 0.23 0.23 97 1015.0
20260831025811 72 55 0.0 2.0 0.00 0.22 0.22 97 1015.0
20260831025539 72 129 0.0 2.0 0.00 0.22 0.22 97 1014.7
20260831024811 72 233 1.0 3.0 0.01 0.22 0.22 97 1015.0
20260831024310 72 221 2.0 4.0 0.01 0.22 0.22 97 1015.4
20260831023810 72 285 2.0 4.0 0.02 0.22 0.22 97 1015.4
20260831023757 72 333 1.0 2.0 0.02 0.22 0.22 97 1015.4
20260831022810 72 234 1.0 2.0 0.02 0.22 0.22 96 1015.4
20260831022307 72 162 1.0 2.0 0.02 0.22 0.22 96 1015.4
20260831021809 72 217 0.0 2.0 0.02 0.22 0.22 96 1015.4
20260831021307 72 224 0.0 2.0 0.02 0.22 0.22 96 1015.4
20260831021030 72 240 0.0 2.0 0.03 0.22 0.22 96 1015.4
20260831020306 72 221 1.0 3.0 0.03 0.22 0.22 96 1015.0
20260831015804 72 192 2.0 3.0 0.03 0.22 0.22 95 1014.7
20260831015305 72 219 0.0 3.0 0.03 0.22 0.22 95 1015.0
20260831014805 72 190 0.0 3.0 0.02 0.21 0.21 95 1014.7
20260831014304 72 189 1.0 3.0 0.02 0.21 0.21 95 1015.0
20260831014023 72 175 2.0 3.0 0.01 0.20 0.20 94 1015.0
20260831013304 72 192 2.0 3.0 0.01 0.20 0.20 94 1015.0
20260831012803 72 221 1.0 3.0 0.01 0.20 0.20 94 1015.0
20260831012305 72 235 0.0 2.0 0.01 0.20 0.20 94 1015.0
20260831011801 72 239 0.0 2.0 0.01 0.20 0.20 94 1014.7
20260831011301 72 229 2.0 2.0 0.01 0.20 0.20 94 1014.7
20260831010801 73 207 2.0 2.0 0.00 0.19 0.19 94 1014.7
20260831010300 73 221 2.0 4.0 0.00 0.19 0.19 94 1014.7
20260831005759 73 186 2.0 4.0 0.00 0.19 0.19 94 1014.7
20260831005259 73 290 4.0 4.0 0.00 0.19 0.19 94 1014.7
20260831004757 73 197 2.0 3.0 0.00 0.19 0.19 94 1014.3
20260831004257 73 152 2.0 4.0 0.00 0.19 0.19 93 1014.7
20260831003757 73 263 2.0 6.0 0.00 0.19 0.19 93 1014.3
20260831003256 73 187 3.0 6.0 0.00 0.19 0.19 93 1014.3
20260831002756 73 183 2.0 3.0 0.00 0.19 0.19 93 1014.7
20260831002255 73 155 1.0 3.0 0.00 0.19 0.19 93 1014.7
20260831001755 73 252 1.0 6.0 0.00 0.19 0.19 93 1014.7
20260831001255 73 190 3.0 6.0 0.00 0.19 0.19 94 1014.3
20260831000755 73 203 2.0 5.0 0.00 0.19 0.19 94 1014.7
20260831000518 73 223 0.0 5.0 0.00 0.19 0.19 94 1014.7
20260831000023 73 189 2.0 7.0 0.00 0.19 0.19 94 1014.3
20260830235253 73 157 2.0 7.0 0.00 0.19 0.19 94 1014.3
20260830234752 72 139 2.0 6.0 0.00 0.19 0.19 95 1014.3
20260830234251 72 164 2.0 6.0 0.00 0.19 0.19 95 1014.7
20260830233750 72 205 2.0 6.0 0.00 0.19 0.19 95 1014.7
20260830233249 72 207 2.0 5.0 0.00 0.19 0.19 95 1014.7
20260830233010 72 214 2.0 2.0 0.00 0.19 0.19 95 1014.7
20260830232510 72 206 0.0 4.0 0.00 0.19 0.19 95 1014.7
20260830231749 72 182 3.0 5.0 0.01 0.19 0.19 95 1014.3
20260830231507 72 170 0.0 5.0 0.01 0.19 0.19 95 1014.3
20260830230750 72 170 2.0 5.0 0.01 0.19 0.19 95 1014.7
20260830230248 72 119 0.0 2.0 0.01 0.19 0.19 95 1015.0
20260830225745 72 156 1.0 4.0 0.01 0.19 0.19 94 1014.7
20260830225247 72 180 2.0 4.0 0.01 0.19 0.19 94 1014.7
20260830224745 73 119 0.0 4.0 0.02 0.19 0.19 94 1014.3
20260830224245 73 125 2.0 6.0 0.02 0.19 0.19 94 1014.3
20260830224008 73 190 3.0 6.0 0.02 0.19 0.19 94 1014.3
20260830223244 73 174 2.0 5.0 0.02 0.19 0.19 93 1014.7
20260830222743 73 177 2.0 4.0 0.02 0.19 0.19 93 1015.0
20260830222511 73 205 2.0 3.0 0.02 0.19 0.19 93 1015.4
20260830221741 73 208 0.0 2.0 0.01 0.18 0.18 93 1015.4
20260830221243 73 234 2.0 2.0 0.01 0.18 0.18 93 1015.4
20260830220742 73 203 1.0 2.0 0.01 0.18 0.18 92 1015.0
20260830220243 73 198 1.0 2.0 0.01 0.18 0.18 92 1015.4
20260830215740 73 219 0.0 4.0 0.01 0.18 0.18 91 1015.4
20260830215240 73 202 0.0 4.0 0.01 0.18 0.18 91 1015.0
20260830214740 73 172 2.0 2.0 0.00 0.17 0.17 90 1015.0